This demonstration page uses our WeatherBlox Daily Observations layout. Learn more.

Left ArrowRight Arrow

Hourly Observations for March 19, 2022

Temp ( °F °C ) Dew Point ( °F °C ) Humidity (%) Winds ( mph kmh ) Pressure ( in mb ) Visibility ( mi km ) Precip ( " mm )
12:15 am 00:15 Clear 32 0 23 -5 69 69 W 8 13 30.13 1020 10 16 0.00 0.00
12:35 am 00:35 Clear 32 0 25 -4 75 75 Calm 30.14 1021 10 16 0.00 0.00
12:55 am 00:55 Clear 34 1 27 -3 75 75 Calm 30.12 1020 10 16 0.00 0.00
1:15 am 01:15 Clear 34 1 25 -4 70 70 Calm 30.13 1020 10 16 0.00 0.00
1:35 am 01:35 Clear 32 0 23 -5 69 69 Calm 30.13 1020 10 16 0.00 0.00
1:55 am 01:55 Clear 30 -1 23 -5 75 75 Calm 30.14 1021 10 16 0.00 0.00
2:15 am 02:15 Clear 30 -1 23 -5 75 75 Calm 30.14 1021 10 16 0.00 0.00
2:35 am 02:35 Clear 32 0 25 -4 75 75 Calm 30.13 1020 10 16 0.00 0.00
2:55 am 02:55 Clear 32 0 25 -4 75 75 Calm 30.13 1020 10 16 0.00 0.00
3:15 am 03:15 Clear 27 -3 21 -6 80 80 Calm 30.16 1021 10 16 0.00 0.00
3:35 am 03:35 Clear 28 -2 23 -5 80 80 WNW 3 6 30.14 1021 10 16 0.00 0.00
3:55 am 03:55 Clear 30 -1 23 -5 75 75 Calm 30.13 1020 10 16 0.00 0.00
4:15 am 04:15 Clear 30 -1 23 -5 75 75 WSW 3 6 30.12 1020 10 16 0.00 0.00
4:35 am 04:35 Clear 27 -3 21 -6 80 80 W 6 9 30.14 1021 10 16 0.00 0.00
4:55 am 04:55 Clear 23 -5 21 -6 93 93 W 8 13 30.16 1021 10 16 0.00 0.00
5:15 am 05:15 Clear 25 -4 21 -6 86 86 W 9 15 30.15 1021 10 16 0.00 0.00
5:35 am 05:35 Clear 27 -3 23 -5 86 86 W 10 17 30.14 1021 10 16 0.00 0.00
5:55 am 05:55 Clear 27 -3 23 -5 86 86 W 9 15 30.15 1021 10 16 0.00 0.00
6:15 am 06:15 Clear 27 -3 23 -5 86 86 W 7 11 30.15 1021 10 16 0.00 0.00
6:35 am 06:35 Clear 28 -2 25 -4 86 86 W 7 11 30.14 1021 10 16 0.00 0.00
6:55 am 06:55 Clear 32 0 28 -2 87 87 WNW 10 17 30.13 1020 10 16 0.00 0.00
7:15 am 07:15 Clear 34 1 30 -1 87 87 WNW 13 20 30.13 1020 10 16 0.00 0.00
7:35 am 07:35 Clear 34 1 28 -2 81 81 NW 15 24 30.13 1020 10 16 0.00 0.00
7:55 am 07:55 Sunny 34 1 28 -2 81 81 NW 15 24 30.14 1021 10 16 0.00 0.00
8:15 am 08:15 Sunny 34 1 28 -2 81 81 NW 14 22 30.15 1021 10 16 0.00 0.00
8:35 am 08:35 Sunny 36 2 30 -1 81 81 NW 16 26 30.15 1021 10 16 0.00 0.00
8:55 am 08:55 Sunny 36 2 28 -2 75 75 NNW 14 22 30.16 1021 10 16 0.00 0.00
9:15 am 09:15 Sunny 37 3 30 -1 75 75 NW 18 30 30.16 1021 10 16 0.00 0.00
9:35 am 09:35 Sunny 39 4 30 -1 70 70 NW 15 24 30.15 1021 10 16 0.00 0.00
9:55 am 09:55 Sunny 43 6 30 -1 61 61 NNW 12 19 30.14 1021 10 16 0.00 0.00
10:15 am 10:15 Sunny 45 7 30 -1 57 57 NW 10 17 30.13 1020 10 16 0.00 0.00
10:35 am 10:35 Sunny 48 9 30 -1 50 50 NNW 10 17 30.13 1020 10 16 0.00 0.00
10:55 am 10:55 Sunny 52 11 28 -2 41 41 NNW 10 17 30.11 1020 10 16 0.00 0.00
11:15 am 11:15 Sunny 54 12 28 -2 38 38 NNW 10 17 30.10 1019 10 16 0.00 0.00
11:35 am 11:35 Sunny 55 13 28 -2 36 36 NNW 9 15 30.09 1019 10 16 0.00 0.00
11:55 am 11:55 Sunny 59 15 27 -3 29 29 N 10 17 30.08 1019 10 16 0.00 0.00
12:15 pm 12:15 Sunny 59 15 27 -3 29 29 NNW 7 11 30.08 1019 10 16 0.00 0.00
12:35 pm 12:35 Sunny 61 16 25 -4 25 25 N 9 15 30.07 1018 10 16 0.00 0.00
12:55 pm 12:55 Sunny 61 16 21 -6 22 22 NNE 6 9 30.06 1018 10 16 0.00 0.00
1:15 pm 13:15 Sunny 63 17 25 -4 24 24 NW 7 11 30.04 1017 10 16 0.00 0.00
1:35 pm 13:35 Sunny 63 17 21 -6 20 20 NW 8 13 30.04 1017 10 16 0.00 0.00
1:55 pm 13:55 Sunny 64 18 23 -5 21 21 NNW 12 19 30.03 1017 10 16 0.00 0.00
2:15 pm 14:15 Sunny 66 19 23 -5 19 19 N 5 7 30.01 1016 10 16 0.00 0.00
2:35 pm 14:35 Sunny 66 19 23 -5 19 19 NNW 9 15 30.00 1016 10 16 0.00 0.00
2:55 pm 14:55 Sunny 68 20 23 -5 18 18 WNW 12 19 29.99 1016 10 16 0.00 0.00
3:15 pm 15:15 Sunny 66 19 21 -6 18 18 WNW 12 19 29.99 1016 10 16 0.00 0.00
3:35 pm 15:35 Sunny 68 20 21 -6 17 17 Calm 29.98 1015 10 16 0.00 0.00
3:55 pm 15:55 Sunny 68 20 23 -5 18 18 W 5 7 29.97 1015 10 16 0.00 0.00
4:15 pm 16:15 Sunny 68 20 23 -5 18 18 W 9 15 29.97 1015 10 16 0.00 0.00
4:35 pm 16:35 Sunny 68 20 21 -6 17 17 W 3 6 29.96 1015 10 16 0.00 0.00
4:55 pm 16:55 Sunny 68 20 21 -6 17 17 WNW 10 17 29.96 1015 10 16 0.00 0.00
5:15 pm 17:15 Sunny 68 20 21 -6 17 17 WNW 13 20 29.95 1014 10 16 0.00 0.00
5:35 pm 17:35 Sunny 68 20 21 -6 17 17 WNW 13 20 29.95 1014 10 16 0.00 0.00
5:55 pm 17:55 Sunny 68 20 21 -6 17 17 W 9 15 29.95 1014 10 16 0.00 0.00
6:15 pm 18:15 Sunny 66 19 21 -6 18 18 SW 10 17 29.95 1014 10 16 0.00 0.00
6:35 pm 18:35 Sunny 66 19 21 -6 18 18 W 6 9 29.95 1014 10 16 0.00 0.00
6:55 pm 18:55 Sunny 63 17 21 -6 20 20 W 6 9 29.97 1015 10 16 0.00 0.00
7:15 pm 19:15 Sunny 61 16 21 -6 22 22 W 6 9 29.98 1015 10 16 0.00 0.00
7:35 pm 19:35 Sunny 59 15 23 -5 25 25 W 5 7 29.99 1015 10 16 0.00 0.00
7:55 pm 19:55 Clear 59 15 23 -5 25 25 WSW 3 6 29.99 1015 10 16 0.00 0.00
8:15 pm 20:15 Clear 57 14 21 -6 25 25 SW 3 6 30.00 1016 10 16 0.00 0.00
8:35 pm 20:35 Clear 55 13 23 -5 28 28 WSW 3 6 30.00 1016 10 16 0.00 0.00
8:55 pm 20:55 Clear 54 12 23 -5 30 30 SW 3 6 30.02 1017 10 16 0.00 0.00
9:15 pm 21:15 Clear 52 11 23 -5 32 32 WSW 3 6 30.03 1017 10 16 0.00 0.00
9:35 pm 21:35 Clear 48 9 23 -5 37 37 SW 3 6 30.05 1018 10 16 0.00 0.00
9:55 pm 21:55 Clear 48 9 23 -5 37 37 SW 5 7 30.05 1018 10 16 0.00 0.00
10:15 pm 22:15 Clear 45 7 23 -5 42 42 SW 5 7 30.07 1018 10 16 0.00 0.00
10:35 pm 22:35 Clear 41 5 25 -4 53 53 SW 7 11 30.09 1019 10 16 0.00 0.00
10:55 pm 22:55 Clear 41 5 23 -5 49 49 WSW 6 9 30.09 1019 10 16 0.00 0.00
11:15 pm 23:15 Clear 43 6 23 -5 46 46 WSW 7 11 30.08 1019 10 16 0.00 0.00
11:35 pm 23:35 Clear 37 3 25 -4 60 60 SW 3 6 30.11 1020 10 16 0.00 0.00
11:55 pm 23:55 Clear 39 4 25 -4 56 56 SW 5 7 30.09 1019 10 16 0.00 0.00

Powered by AerisWeather